Location: Battersea Observatory
(44.4318°N, 76.3841°W)
Time: 22:48:45
(UTC-04:00)

Tiros 1 despin weight - Pass Details

Date: 28 January 2022
Orbit: 592 x 639 km, 48.2° (Epoch: 25 May)

Event Time Altitude Azimuth Distance (km) Brightness Sun altitude
Rises 22:01:09 0° 288° (WNW) 2,923 - -50.9°
Reaches altitude 10° 22:03:46 10° 276° (W) 2,019 - -51.3°
Maximum altitude 22:07:35 26° 220° (SW) 1,269 - -51.9°
Drops below altitude 10° 22:11:26 10° 165° (SSE) 2,022 - -52.5°
Sets 22:14:03 0° 152° (SSE) 2,929 - -52.9°
